• In United Kingdom
  • List of Countries
  • For 7 days
  • Water Temperature
  • Satellite Maps
  • Weather Map
  • Weather Widgets
  • user-avatar
    Login

    Hourly Weather Adelaide

    Today, 26 September, Wednesday

    Time Temperature Precipitation Wind Pressure Humidity
    00:00 +9°C° 0 mm 3 mps 763 mmHg 72%
    01:00 +9°C° 0 mm 3 mps 763 mmHg 72%
    02:00 +9°C° 0 mm 3 mps 763 mmHg 72%
    03:00 +8°C° 0 mm 3 mps 762 mmHg 72%
    04:00 +8°C° 0 mm 3 mps 762 mmHg 72%
    05:00 +7°C° 0 mm 4 mps 762 mmHg 72%
    06:00 +7°C° 0 mm 4 mps 762 mmHg 71%
    07:00 +11°C° 0 mm 4 mps 762 mmHg 63%
    08:00 +14°C° 0 mm 4 mps 761 mmHg 55%
    09:00 +18°C° 0 mm 4 mps 761 mmHg 44%
    10:00 +20°C° 0 mm 4 mps 761 mmHg 40%
    11:00 +21°C° 0 mm 4 mps 760 mmHg 35%
    12:00 +24°C° 0 mm 3 mps 759 mmHg 31%
    13:00 +24°C° 0 mm 3 mps 759 mmHg 31%
    14:00 +25°C° 0 mm 3 mps 758 mmHg 31%
    15:00 +25°C° 0 mm 3 mps 758 mmHg 30%
    16:00 +22°C° 0 mm 3 mps 758 mmHg 33%
    17:00 +20°C° 0 mm 2 mps 758 mmHg 36%
    18:00 +19°C° 0 mm 2 mps 757 mmHg 39%
    19:00 +18°C° 0 mm 2 mps 758 mmHg 40%
    20:00 +17°C° 0 mm 2 mps 758 mmHg 40%
    21:00 +16°C° 0 mm 3 mps 758 mmHg 40%
    22:00 +16°C° 0 mm 3 mps 758 mmHg 45%
    23:00 +14°C° 0 mm 3 mps 758 mmHg 49%

    Tomorrow, 27 September, Thursday

    Time Temperature Precipitation Wind Pressure Humidity
    00:00 +13°C° 0 mm 3 mps 758 mmHg 54%
    01:00 +12°C° 0 mm 3 mps 758 mmHg 63%
    02:00 +12°C° 0 mm 3 mps 758 mmHg 72%
    03:00 +11°C° 0 mm 3 mps 758 mmHg 82%
    04:00 +11°C° 0 mm 3 mps 758 mmHg 85%
    05:00 +11°C° 0 mm 3 mps 758 mmHg 89%
    06:00 +11°C° 0 mm 3 mps 758 mmHg 93%
    07:00 +12°C° 0 mm 3 mps 759 mmHg 86%
    08:00 +14°C° 0 mm 4 mps 759 mmHg 79%
    09:00 +15°C° 0 mm 4 mps 760 mmHg 72%
    10:00 +15°C° 0 mm 4 mps 760 mmHg 70%
    11:00 +17°C° 0 mm 4 mps 760 mmHg 68%
    12:00 +17°C° 0 mm 4 mps 760 mmHg 66%
    13:00 +17°C° 0 mm 4 mps 759 mmHg 64%
    14:00 +17°C° 0 mm 4 mps 759 mmHg 63%
    15:00 +17°C° 0 mm 4 mps 759 mmHg 62%
    16:00 +15°C° 0 mm 4 mps 759 mmHg 67%
    17:00 +14°C° 0 mm 3 mps 760 mmHg 71%
    18:00 +13°C° 0 mm 3 mps 760 mmHg 76%
    19:00 +12°C° 0 mm 3 mps 760 mmHg 77%
    20:00 +12°C° 0 mm 3 mps 760 mmHg 78%
    21:00 +11°C° 0 mm 3 mps 761 mmHg 79%
    22:00 +11°C° 0 mm 3 mps 761 mmHg 80%
    23:00 +10°C° 0 mm 3 mps 760 mmHg 82%

    Day after tomorrow, 28 September, Friday

    Time Temperature Precipitation Wind Pressure Humidity
    00:00 +10°C° 0 mm 2 mps 760 mmHg 83%
    01:00 +10°C° 0 mm 3 mps 760 mmHg 84%
    02:00 +10°C° 0 mm 3 mps 760 mmHg 86%
    03:00 +9°C° 0 mm 3 mps 760 mmHg 87%
    04:00 +10°C° 0.2 mm 3 mps 760 mmHg 87%
    05:00 +10°C° 0.2 mm 3 mps 760 mmHg 88%
    06:00 +10°C° 0.2 mm 3 mps 761 mmHg 88%
    07:00 +11°C° 0.3 mm 4 mps 761 mmHg 84%
    08:00 +12°C° 0.3 mm 4 mps 761 mmHg 80%
    09:00 +12°C° 0.3 mm 4 mps 762 mmHg 76%
    10:00 +13°C° 0.1 mm 5 mps 762 mmHg 70%
    11:00 +13°C° 0.1 mm 5 mps 762 mmHg 63%
    12:00 +14°C° 0.1 mm 5 mps 762 mmHg 56%
    13:00 +14°C° 0.1 mm 6 mps 762 mmHg 56%
    14:00 +14°C° 0.1 mm 6 mps 762 mmHg 56%
    15:00 +12°C° 0.1 mm 7 mps 762 mmHg 56%
    16:00 +11°C° 0 mm 6 mps 763 mmHg 59%
    17:00 +10°C° 0 mm 6 mps 763 mmHg 62%
    18:00 +8°C° 0 mm 5 mps 764 mmHg 66%
    19:00 +8°C° 0 mm 5 mps 765 mmHg 68%
    20:00 +7°C° 0 mm 4 mps 765 mmHg 70%
    21:00 +6°C° 0 mm 4 mps 766 mmHg 72%
    22:00 +6°C° 0 mm 4 mps 766 mmHg 73%
    23:00 +6°C° 0 mm 4 mps 766 mmHg 73%

    29 September, Saturday

    Time Temperature Precipitation Wind Pressure Humidity
    00:00 +7°C° 0 mm 3 mps 766 mmHg 73%
    01:00 +5°C° 0 mm 3 mps 766 mmHg 73%
    02:00 +5°C° 0 mm 3 mps 766 mmHg 72%
    03:00 +5°C° 0 mm 3 mps 766 mmHg 72%
    04:00 +7°C° 0 mm 3 mps 767 mmHg 72%
    05:00 +7°C° 0 mm 3 mps 767 mmHg 71%
    06:00 +7°C° 0 mm 2 mps 768 mmHg 71%
    07:00 +9°C° 0 mm 3 mps 768 mmHg 64%
    08:00 +11°C° 0 mm 3 mps 768 mmHg 57%
    09:00 +13°C° 0 mm 3 mps 769 mmHg 50%
    10:00 +13°C° 0 mm 3 mps 768 mmHg 49%
    11:00 +14°C° 0 mm 3 mps 768 mmHg 48%
    12:00 +14°C° 0 mm 3 mps 768 mmHg 47%
    13:00 +16°C° 0 mm 3 mps 768 mmHg 47%
    14:00 +15°C° 0 mm 4 mps 767 mmHg 47%
    15:00 +15°C° 0 mm 4 mps 767 mmHg 47%
    16:00 +13°C° 0 mm 4 mps 767 mmHg 53%
    17:00 +12°C° 0 mm 4 mps 768 mmHg 60%
    18:00 +10°C° 0 mm 4 mps 768 mmHg 67%
    19:00 +9°C° 0 mm 3 mps 769 mmHg 71%
    20:00 +8°C° 0 mm 3 mps 769 mmHg 75%
    21:00 +8°C° 0 mm 3 mps 770 mmHg 79%
    22:00 +7°C° 0 mm 3 mps 770 mmHg 80%
    23:00 +7°C° 0 mm 3 mps 769 mmHg 81%

    30 September, Sunday

    Time Temperature Precipitation Wind Pressure Humidity
    00:00 +7°C° 0 mm 3 mps 769 mmHg 82%
    01:00 +5°C° 0 mm 3 mps 769 mmHg 83%
    02:00 +5°C° 0 mm 3 mps 769 mmHg 84%
    03:00 +5°C° 0 mm 3 mps 769 mmHg 85%
    04:00 +5°C° 0 mm 3 mps 769 mmHg 84%
    05:00 +5°C° 0 mm 3 mps 769 mmHg 83%
    06:00 +5°C° 0 mm 3 mps 769 mmHg 81%
    07:00 +8°C° 0 mm 3 mps 769 mmHg 71%
    08:00 +11°C° 0 mm 4 mps 769 mmHg 61%
    09:00 +13°C° 0 mm 4 mps 769 mmHg 50%
    10:00 +16°C° 0 mm 3 mps 769 mmHg 45%
    11:00 +18°C° 0 mm 3 mps 768 mmHg 40%
    12:00 +20°C° 0 mm 2 mps 767 mmHg 34%
    13:00 +20°C° 0 mm 2 mps 767 mmHg 34%
    14:00 +21°C° 0 mm 2 mps 766 mmHg 33%
    15:00 +21°C° 0 mm 3 mps 766 mmHg 33%
    16:00 +19°C° 0 mm 3 mps 766 mmHg 39%
    17:00 +17°C° 0 mm 3 mps 766 mmHg 44%
    18:00 +14°C° 0 mm 3 mps 766 mmHg 50%
    19:00 +14°C° 0 mm 3 mps 766 mmHg 49%
    20:00 +13°C° 0 mm 3 mps 766 mmHg 49%
    21:00 +12°C° 0 mm 3 mps 766 mmHg 49%
    22:00 +12°C° 0 mm 3 mps 766 mmHg 47%
    23:00 +12°C° 0 mm 3 mps 766 mmHg 46%

    1 October, Monday

    Time Temperature Precipitation Wind Pressure Humidity
    00:00 +11°C° 0 mm 4 mps 766 mmHg 44%
    01:00 +12°C° 0 mm 4 mps 765 mmHg 43%
    02:00 +12°C° 0 mm 4 mps 765 mmHg 42%
    03:00 +12°C° 0 mm 4 mps 764 mmHg 40%
    04:00 +12°C° 0 mm 5 mps 764 mmHg 41%
    05:00 +10°C° 0 mm 5 mps 765 mmHg 42%
    06:00 +10°C° 0 mm 5 mps 765 mmHg 42%
    07:00 +14°C° 0 mm 5 mps 765 mmHg 39%
    08:00 +16°C° 0 mm 5 mps 765 mmHg 35%
    09:00 +20°C° 0 mm 5 mps 765 mmHg 31%
    10:00 +21°C° 0 mm 5 mps 765 mmHg 29%
    11:00 +23°C° 0 mm 4 mps 764 mmHg 27%
    12:00 +25°C° 0 mm 4 mps 764 mmHg 24%
    13:00 +25°C° 0 mm 3 mps 763 mmHg 24%
    14:00 +26°C° 0 mm 2 mps 763 mmHg 24%
    15:00 +26°C° 0 mm 2 mps 762 mmHg 24%
    16:00 +24°C° 0 mm 2 mps 762 mmHg 27%
    17:00 +21°C° 0 mm 2 mps 762 mmHg 31%
    18:00 +19°C° 0 mm 2 mps 762 mmHg 34%
    19:00 +19°C° 0 mm 2 mps 763 mmHg 34%
    20:00 +19°C° 0 mm 2 mps 763 mmHg 34%
    21:00 +18°C° 0 mm 2 mps 763 mmHg 35%
    22:00 +18°C° 0 mm 2 mps 763 mmHg 34%
    23:00 +18°C° 0 mm 2 mps 763 mmHg 33%
    Show more